FW6053 Weather Reports


Display with metric or nautical units.
time (UTC)temp
F
wind
direction
speed
MPH
gust
MPH
rain 1hr
in
rain 24hr
in
rain mn
in
humidity
%
barometer
mb
20260507221556 48 0 0.0 2.0 0.00 0.00 0.00 81 1012.5
20260507220056 49 0 0.0 1.0 0.00 0.00 0.00 81 1012.3
20260507214607 49 212 0.0 3.0 0.00 0.00 0.00 81 1012.4
20260507213107 49 220 0.0 4.0 0.00 0.00 0.00 80 1012.3
20260507211555 50 213 0.0 3.0 0.00 0.00 0.00 80 1012.2
20260507210056 50 196 1.0 7.0 0.00 0.00 0.00 79 1012.2
20260507204601 50 196 2.0 5.0 0.00 0.00 0.00 79 1012.2
20260507203053 50 227 0.0 3.0 0.00 0.00 0.00 80 1012.2
20260507201553 51 0 0.0 3.0 0.00 0.00 0.00 79 1011.9
20260507200053 51 218 1.0 5.0 0.00 0.00 0.00 78 1011.9
20260507194552 51 230 1.0 7.0 0.00 0.00 0.00 77 1011.9
20260507193106 51 234 3.0 10.0 0.00 0.00 0.00 77 1011.8
20260507191554 52 200 4.0 10.0 0.00 0.00 0.00 76 1011.6
20260507184556 52 188 4.0 9.0 0.00 0.00 0.00 75 1011.5
20260507183057 53 170 2.0 8.0 0.00 0.00 0.00 75 1011.5
20260507181553 53 186 3.0 6.0 0.00 0.00 0.00 74 1011.5
20260507180103 53 188 3.0 8.0 0.00 0.00 0.00 74 1011.3
20260507174552 53 232 2.0 7.0 0.00 0.00 0.00 74 1011.4
20260507173057 52 199 2.0 6.0 0.00 0.00 0.00 75 1011.6
20260507171556 51 237 1.0 4.0 0.00 0.00 0.00 76 1011.5
20260507170054 51 241 2.0 7.0 0.00 0.00 0.00 76 1011.7
20260507164556 51 226 4.0 9.0 0.00 0.00 0.00 77 1011.8
20260507163053 51 175 4.0 11.0 0.00 0.00 0.00 79 1011.9
20260507161556 51 190 4.0 9.0 0.00 0.00 0.00 80 1011.9
20260507160101 50 194 2.0 7.0 0.00 0.00 0.00 81 1012.0
20260507154553 50 209 1.0 7.0 0.00 0.00 0.00 83 1012.1
20260507153058 50 200 2.0 6.0 0.00 0.00 0.00 84 1012.2
20260507151554 50 211 2.0 7.0 0.00 0.00 0.00 84 1012.2
20260507150054 50 0 2.0 11.0 0.00 0.00 0.00 82 1012.2
20260507144558 51 268 5.0 12.0 0.00 0.00 0.00 78 1012.1
20260507143056 53 233 4.0 11.0 0.00 0.00 0.00 74 1012.1
20260507141601 53 229 7.0 14.0 0.00 0.00 0.00 72 1012.1
20260507140108 53 191 4.0 18.0 0.00 0.00 0.00 73 1012.3
20260507134552 53 190 5.0 11.0 0.00 0.00 0.00 73 1012.2
20260507133052 53 178 4.0 10.0 0.00 0.00 0.00 73 1012.4
20260507131604 53 205 3.0 11.0 0.00 0.00 0.00 73 1012.5
20260507130110 53 187 3.0 13.0 0.00 0.00 0.00 74 1012.5
20260507124604 52 202 7.0 13.0 0.00 0.00 0.00 75 1012.7
20260507123059 51 199 5.0 11.0 0.00 0.00 0.00 76 1012.8
20260507121557 50 185 5.0 12.0 0.00 0.00 0.00 78 1012.9
20260507120056 50 165 7.0 12.0 0.00 0.00 0.00 78 1013.0
20260507114604 50 188 3.0 7.0 0.00 0.00 0.00 78 1013.0
20260507113051 50 173 5.0 10.0 0.00 0.00 0.00 77 1013.1
20260507111555 50 200 4.0 8.0 0.00 0.00 0.00 74 1013.2
20260507110052 50 156 2.0 8.0 0.00 0.00 0.00 73 1013.1
20260507104554 51 171 3.0 8.0 0.00 0.00 0.00 73 1013.2
20260507103058 51 168 3.0 8.0 0.00 0.00 0.00 72 1013.2
20260507101555 51 145 4.0 10.0 0.00 0.00 0.00 72 1013.1
20260507100111 51 176 4.0 7.0 0.00 0.00 0.00 72 1013.0
20260507094600 50 190 2.0 7.0 0.00 0.00 0.00 73 1013.4
20260507093108 50 148 2.0 5.0 0.00 0.00 0.00 73 1013.5
20260507091611 49 192 3.0 5.0 0.00 0.00 0.00 73 1013.4
20260507090100 49 167 3.0 6.0 0.00 0.00 0.00 73 1013.6
20260507084558 48 180 4.0 7.0 0.00 0.00 0.00 73 1013.6
20260507083107 48 179 4.0 7.0 0.00 0.00 0.00 73 1013.5
20260507081555 48 130 1.0 6.0 0.00 0.00 0.00 75 1013.7
20260507080121 47 84 1.0 4.0 0.00 0.00 0.00 76 1013.8
20260507074601 47 96 0.0 4.0 0.00 0.00 0.00 77 1013.9
20260507073118 46 0 0.0 6.0 0.00 0.00 0.00 77 1013.8
20260507071603 45 88 2.0 6.0 0.00 0.00 0.00 79 1013.7
20260507070054 45 84 2.0 6.0 0.00 0.00 0.00 80 1013.7
20260507064559 44 62 2.0 4.0 0.00 0.00 0.00 82 1013.7
20260507063058 43 52 1.0 6.0 0.00 0.00 0.00 82 1013.7
20260507061554 43 49 1.0 4.0 0.00 0.00 0.00 83 1013.8
20260507060053 42 0 1.0 4.0 0.00 0.00 0.00 83 1013.8
20260507054603 42 63 1.0 4.0 0.00 0.00 0.00 83 1013.7
20260507053056 42 54 1.0 4.0 0.00 0.00 0.00 83 1013.8
20260507051552 41 55 1.0 4.0 0.00 0.00 0.00 84 1013.9
20260507050057 41 59 1.0 4.0 0.00 0.00 0.00 85 1013.9
20260507044600 40 0 0.0 2.0 0.00 0.00 0.00 85 1013.9
20260507043052 40 0 0.0 0.0 0.00 0.00 0.00 85 1013.9
20260507041559 40 0 0.0 0.0 0.00 0.00 0.00 85 1013.8
20260507040105 39 0 0.0 0.0 0.00 0.00 0.00 84 1013.7
20260507034558 39 0 0.0 1.0 0.00 0.00 0.00 83 1013.8
20260507033057 40 0 0.0 0.0 0.00 0.00 0.00 82 1014.0
20260507031550 40 0 0.0 0.0 0.00 0.00 0.00 82 1014.0
20260507030056 40 0 0.0 0.0 0.00 0.00 0.00 82 1014.0
20260507024553 41 0 0.0 1.0 0.00 0.00 0.00 82 1014.1
20260507023052 41 0 0.0 0.0 0.00 0.00 0.00 81 1014.2
20260507021552 42 0 0.0 1.0 0.00 0.00 0.00 80 1014.2
20260507014602 43 0 0.0 0.0 0.00 0.00 0.00 78 1014.2
20260507013050 43 0 0.0 0.0 0.00 0.00 0.00 78 1014.3
20260507011602 44 0 0.0 4.0 0.00 0.00 0.00 78 1014.5
20260507010055 44 80 1.0 3.0 0.00 0.00 0.00 78 1014.6
20260507004556 44 84 1.0 3.0 0.00 0.00 0.00 77 1014.8
20260507003056 44 85 1.0 4.0 0.00 0.00 0.00 77 1014.7
20260507001613 44 19 1.0 7.0 0.00 0.00 0.00 77 1014.9
20260507000059 44 79 1.0 4.0 0.00 0.00 0.00 77 1015.0
20260506234558 44 75 1.0 6.0 0.00 0.00 0.00 77 1015.1
20260506233056 44 93 2.0 7.0 0.00 0.00 0.00 77 1015.1
20260506231553 44 93 3.0 8.0 0.00 0.00 0.00 77 1015.1
20260506230058 44 77 2.0 5.0 0.00 0.00 0.00 76 1015.3
20260506224552 44 5 3.0 7.0 0.00 0.00 0.00 77 1015.3
20260506223053 44 36 1.0 7.0 0.00 0.00 0.00 76 1015.4